GW1378 Weather Reports


time (UTC)temp
C
wind
direction
speed
KPH
gust
KPH
rain 1hr
cm
rain 24hr
cm
rain mn
cm
humidity
%
barometer
mb
20260508043005 3 288 0.0 0.0 0.00 0.33 0.33 73 1032.8
20260508041505 3 288 0.0 0.0 0.00 0.33 0.33 72 1032.8
20260508040005 4 288 0.0 1.6 0.00 0.33 0.33 67 1033.2
20260508034511 5 288 0.0 0.0 0.00 0.33 0.33 66 1033.1
20260508033004 5 288 0.0 1.6 0.00 0.33 0.33 67 1032.9
20260508031503 6 288 0.0 0.0 0.00 0.33 0.33 66 1033.1
20260508030003 6 288 0.0 1.6 0.00 0.33 0.33 59 1033.1
20260508024502 7 288 0.0 1.6 0.00 0.33 0.33 59 1033.1
20260508023004 7 288 0.0 1.6 0.00 0.33 0.33 56 1033.1
20260508021502 8 327 0.0 3.2 0.00 0.33 0.33 53 1033.0
20260508020001 8 328 3.2 12.9 0.00 0.33 0.33 48 1032.8
20260508014501 8 281 0.0 6.4 0.00 0.33 0.33 49 1032.8
20260508013101 8 305 0.0 1.6 0.00 0.33 0.33 56 1032.7
20260508011614 9 304 0.0 4.8 0.00 0.33 0.33 55 1032.6
20260508004558 10 105 0.0 4.8 0.00 0.36 0.33 50 1032.9
20260508003058 11 342 0.0 9.7 0.00 0.36 0.33 47 1032.8
20260508001557 12 5 4.8 14.5 0.00 0.36 0.33 39 1032.7
20260508000113 12 269 3.2 14.5 0.00 0.36 0.33 39 1033.0
20260507234554 12 313 3.2 14.5 0.00 0.46 0.33 38 1033.2
20260507233053 13 36 3.2 12.9 0.00 0.46 0.33 39 1033.2
20260507231559 13 300 6.4 17.7 0.00 0.46 0.33 34 1033.3
20260507230051 14 248 4.8 17.7 0.00 0.46 0.33 38 1033.4
20260507224551 13 279 1.6 14.5 0.00 0.53 0.33 36 1033.6
20260507223046 13 172 3.2 12.9 0.00 0.53 0.33 43 1033.7
20260507221543 12 250 3.2 19.3 0.00 0.53 0.33 41 1034.0
20260507220041 12 318 6.4 17.7 0.00 0.53 0.33 37 1034.3
20260507214542 11 331 3.2 19.3 0.00 0.71 0.33 42 1034.7
20260507213040 11 347 1.6 19.3 0.00 0.71 0.33 46 1035.0
20260507211543 10 184 3.2 12.9 0.00 0.71 0.33 50 1035.5
20260507210030 11 229 6.4 12.9 0.00 0.71 0.33 44 1036.0
20260507204527 10 65 3.2 16.1 0.00 0.86 0.33 49 1036.3
20260507203026 9 305 1.6 9.7 0.00 0.86 0.33 54 1036.5
20260507201523 10 328 0.0 6.4 0.00 0.86 0.33 50 1036.9
20260507200021 10 296 1.6 12.9 0.00 0.86 0.33 48 1037.2
20260507194521 10 222 0.0 11.3 0.03 0.89 0.33 48 1037.2
20260507193022 10 355 3.2 16.1 0.03 0.89 0.33 49 1037.3
20260507191516 10 302 1.6 4.8 0.05 0.89 0.33 54 1037.4
20260507190017 9 355 1.6 6.4 0.10 0.89 0.33 58 1037.7
20260507184509 7 299 3.2 14.5 0.13 0.89 0.30 61 1037.8
20260507183010 7 254 0.0 19.3 0.15 0.89 0.30 61 1037.9
20260507181506 7 100 0.0 0.0 0.13 0.86 0.28 68 1038.0
20260507180002 6 134 0.0 0.0 0.10 0.81 0.23 79 1038.4
20260507174635 3 135 0.0 0.0 0.05 0.76 0.18 83 1039.0
20260507173057 2 135 0.0 0.0 0.05 0.71 0.15 84 1039.1
20260507171610 2 135 0.0 0.0 0.05 0.71 0.15 84 1039.2
20260507170057 2 135 0.0 0.0 0.03 0.71 0.13 85 1039.4
20260507164556 2 135 0.0 0.0 0.05 0.71 0.13 85 1039.7
20260507163054 2 135 0.0 0.0 0.03 0.69 0.10 86 1039.8
20260507161556 1 135 0.0 0.0 0.05 0.69 0.10 86 1039.9
20260507160113 1 135 0.0 0.0 0.05 0.69 0.10 86 1040.1
20260507154552 2 135 0.0 0.0 0.05 0.66 0.08 86 1040.4
20260507153052 2 135 0.0 0.0 0.05 0.66 0.08 86 1040.4
20260507151557 2 135 0.0 0.0 0.05 0.64 0.05 85 1040.6
20260507150050 2 135 0.0 1.6 0.05 0.64 0.05 83 1040.7
20260507144547 2 135 0.0 1.6 0.03 0.61 0.03 82 1040.9
20260507143043 1 135 0.0 0.0 0.03 0.61 0.03 85 1041.2
20260507141539 0 135 0.0 0.0 0.00 0.58 0.00 84 1041.1
20260507140044 -2 135 0.0 0.0 0.00 0.58 0.00 84 1041.3
20260507134531 -3 135 0.0 1.6 0.00 0.58 0.00 85 1041.4
20260507133026 -4 135 0.0 1.6 0.00 0.58 0.00 85 1041.4
20260507131534 -6 135 0.0 0.0 0.00 0.58 0.00 86 1041.2
20260507130017 -6 135 0.0 0.0 0.00 0.58 0.00 87 1041.2
20260507124520 -7 135 0.0 0.0 0.00 0.58 0.00 87 1040.9
20260507123021 -7 135 0.0 0.0 0.00 0.58 0.00 87 1041.0
20260507121513 -8 135 0.0 1.6 0.00 0.58 0.00 87 1040.7
20260507120024 -8 135 0.0 0.0 0.00 0.58 0.00 87 1040.8
20260507114508 -8 135 0.0 0.0 0.00 0.58 0.00 88 1040.5
20260507113008 -8 135 0.0 0.0 0.00 0.58 0.00 87 1040.6
20260507111507 -8 135 0.0 0.0 0.00 0.58 0.00 87 1040.5
20260507110007 -8 135 0.0 0.0 0.00 0.58 0.00 87 1040.5
20260507104506 -8 135 0.0 1.6 0.00 0.58 0.00 87 1040.6
20260507103005 -8 135 0.0 0.0 0.00 0.58 0.00 88 1040.7
20260507101507 -8 135 0.0 0.0 0.00 0.58 0.00 88 1040.5
20260507100005 -8 135 0.0 0.0 0.00 0.58 0.00 88 1040.2
20260507094503 -8 135 0.0 0.0 0.00 0.58 0.00 87 1040.3
20260507093003 -8 135 0.0 0.0 0.00 0.58 0.00 87 1040.4
20260507091501 -8 135 0.0 0.0 0.00 0.58 0.00 87 1040.4
20260507090059 -8 135 0.0 1.6 0.00 0.58 0.00 87 1040.3
20260507084602 -8 135 0.0 1.6 0.00 0.58 0.00 87 1039.9
20260507083056 -8 135 0.0 0.0 0.00 0.58 0.00 87 1040.1
20260507081555 -7 135 0.0 0.0 0.00 0.58 0.00 87 1040.2
20260507080055 -7 135 0.0 0.0 0.00 0.58 0.00 87 1040.3
20260507074554 -7 135 0.0 0.0 0.00 0.58 0.00 87 1040.1
20260507073058 -7 135 0.0 3.2 0.00 0.58 0.00 87 1040.0
20260507071553 -7 135 0.0 3.2 0.00 0.58 0.00 87 1040.0
20260507070104 -7 134 0.0 3.2 0.00 0.58 0.00 87 1039.9
20260507064549 -7 134 0.0 0.0 0.00 0.58 0.00 87 1040.0
20260507063052 -7 134 0.0 1.6 0.00 0.58 0.00 87 1039.8
20260507061544 -7 134 0.0 0.0 0.00 0.58 0.00 87 1039.4
20260507060044 -6 134 0.0 0.0 0.00 0.58 0.00 87 1039.2
20260507054541 -6 134 0.0 0.0 0.00 0.58 0.58 87 1039.1
20260507053038 -6 134 0.0 0.0 0.00 0.58 0.58 87 1039.1
20260507051534 -5 134 0.0 0.0 0.00 0.58 0.58 87 1038.6
20260507050054 -5 134 0.0 0.0 0.00 0.58 0.58 87 1038.4
20260507044536 -5 134 0.0 0.0 0.00 0.58 0.58 87 1038.4